Weather History for KEQY - February, 2013

Change the Weather History Date:

Friday, February 8, 2013

  Actual Average (KCLT) Record (KCLT)
Temperature  
Mean Temperature 50 °F 42 °F  
Max Temperature 60 °F 54 °F 74 °F (2009)
Min Temperature 39 °F 31 °F 1 °F (1895)
Degree Days  
Heating Degree Days 16 23  
Month to date heating degree days 185  
Since 1 July heating degree days 2292  
Cooling Degree Days 0 0  
Month to date cooling degree days 0  
Year to date cooling degree days 0  
Moisture  
Dew Point 38 °F    
Average Humidity 74    
Maximum Humidity 93    
Minimum Humidity 44    
Precipitation  
Precipitation 0.00 in 0.10 in 1.12 in (1896)
Month to date precipitation 0.87  
Year to date precipitation 4.28  
Snow  
Snow 0.00 in 0.10 in 0.20 in (1964)
Month to date snowfall 0.4  
Since 1 July snowfall 2.9  
Snow Depth -    
Sea Level Pressure  
Sea Level Pressure 29.96 in    
Wind  
Wind Speed 12 mph (NW)    
Max Wind Speed 17 mph    
Max Gust Speed 28 mph    
Visibility 10 miles    
Events Rain    
T = Trace of Precipitation, MM = Missing Value Source: NWS Daily Summary

Daily Weather History Graph

Daily Weather History Graph

Search for Another Location

Airport or City:

Trip Planner

Search our weather history database for the weather conditions in past years. The results will help you decide how hot, cold, wet, or windy it might be!

Date:

Astronomy

Feb. 08, 2013 Rise Set
Actual Time 7:15 AM EST 5:58 PM EST
Civil Twilight 6:49 AM EST 6:24 PM EST
Nautical Twilight 6:19 AM EST 6:54 PM EST
Astronomical Twilight 5:49 AM EST 7:24 PM EST
Moon 5:40 AM EST (2/8) 4:31 PM EST (2/8)
Length of Visible Light 11h 35m
Length of Day
10h 43m
Waning Crescent, 3% of the Moon is Illuminated
Feb 8
Waning Crescent
Feb 10
New
Feb 17
First Quarter
Feb 25
Full
Mar 4
Last Quarter

Hourly Weather History & Observations

Time (EST) Temp. Windchill Dew Point Humidity Pressure Visibility Wind Dir Wind Speed Gust Speed Precip Events Conditions
12:53 AM 42.1 °F 34.5 °F 39.9 °F 92% 29.97 in 10.0 mi North 15.0 mph - N/A Rain Light Rain
1:19 AM 42.8 °F 35.1 °F 39.2 °F 87% 29.91 in 10.0 mi North 16.1 mph 21.9 mph N/A Rain Light Rain
1:53 AM 42.1 °F 34.2 °F 39.9 °F 92% 29.94 in 9.0 mi NNE 16.1 mph 26.5 mph N/A Rain Light Rain
2:05 AM 42.8 °F 34.8 °F 39.2 °F 87% 29.89 in 10.0 mi NNE 17.3 mph 26.5 mph N/A Rain Light Rain
2:16 AM 42.8 °F 35.4 °F 39.2 °F 87% 29.89 in 10.0 mi NNE 15.0 mph 27.6 mph N/A Rain Light Rain
2:53 AM 41.0 °F 33.9 °F 39.0 °F 93% 29.92 in 10.0 mi North 12.7 mph 21.9 mph N/A   Overcast
3:53 AM 41.0 °F 35.2 °F 39.0 °F 93% 29.92 in 10.0 mi North 9.2 mph - N/A   Overcast
4:53 AM 41.0 °F 34.3 °F 39.0 °F 93% 29.94 in 10.0 mi North 11.5 mph - N/A   Overcast
5:53 AM 39.9 °F 34.5 °F 37.9 °F 93% 29.94 in 10.0 mi North 8.1 mph - N/A   Overcast
6:53 AM 39.0 °F 32.3 °F 37.0 °F 93% 29.95 in 10.0 mi North 10.4 mph - N/A   Overcast
7:53 AM 39.0 °F 34.0 °F 37.0 °F 93% 29.96 in 10.0 mi NNW 6.9 mph - N/A   Overcast
8:53 AM 39.9 °F 34.5 °F 37.0 °F 89% 29.98 in 10.0 mi NNW 8.1 mph - N/A   Overcast
9:53 AM 41.0 °F 36.4 °F 37.9 °F 89% 29.99 in 10.0 mi NNW 6.9 mph - N/A   Overcast
10:53 AM 44.1 °F 40.1 °F 39.9 °F 85% 29.99 in 10.0 mi West 6.9 mph - N/A   Overcast
11:18 AM 46.4 °F 42.4 °F 42.8 °F 87% 29.93 in 10.0 mi WSW 8.1 mph - N/A   Scattered Clouds
11:53 AM 50.0 °F - 43.0 °F 77% 29.96 in 10.0 mi WSW 9.2 mph - N/A   Partly Cloudy
12:53 PM 55.0 °F - 45.0 °F 69% 29.93 in 10.0 mi WSW 15.0 mph - N/A   Clear
1:53 PM 59.0 °F - 46.0 °F 62% 29.90 in 10.0 mi WNW 12.7 mph 19.6 mph N/A   Clear
2:53 PM 60.1 °F - 46.0 °F 60% 29.89 in 10.0 mi West 8.1 mph - N/A   Scattered Clouds
3:53 PM 59.0 °F - 45.0 °F 60% 29.90 in 10.0 mi WNW 9.2 mph 19.6 mph N/A   Overcast
4:53 PM 59.0 °F - 45.0 °F 60% 29.92 in 10.0 mi WNW 6.9 mph - N/A   Overcast
5:53 PM 55.9 °F - 37.0 °F 49% 29.96 in 10.0 mi WNW 6.9 mph - N/A   Clear
6:53 PM 54.0 °F - 35.1 °F 49% 29.99 in 10.0 mi West 4.6 mph - N/A   Clear
7:53 PM 53.1 °F - 32.0 °F 45% 30.01 in 10.0 mi NW 10.4 mph - N/A   Clear
8:53 PM 51.1 °F - 30.0 °F 44% 30.05 in 10.0 mi NW 6.9 mph - N/A   Clear
9:53 PM 48.0 °F - 28.9 °F 48% 30.09 in 10.0 mi North 5.8 mph - N/A   Clear
10:53 PM 46.0 °F 39.9 °F 28.0 °F 50% 30.12 in 10.0 mi North 13.8 mph 20.7 mph N/A   Clear
11:53 PM 43.0 °F 38.8 °F 27.0 °F 53% 30.14 in 10.0 mi NNW 6.9 mph - N/A   Clear